Temperature
16 16 16 16 16 15 15 15 15 15 15 15 15 15 15 15 15 15 15 15 15 15 15 15 15 15 15 15 15 15 15 15 15 15 14 14 14 14 14 14 14 14 14
16 16 16 15 15 15 15 15 15 15 15 15 15 15 15 15 15 15 15 15 15 14 14 14 14 14 14 14 14 14 14 14 14 14 14 14 14 14 14 14 14 14 14
16 15 15 15 15 15 15 15 15 15 15 15 15 15 15 15 15 15 15 15 15 14 14 14 14 14 14 14 14 14 14 14 14 14 14 13 14 14 14 14 14 14 13
15 15 15 15 15 15 15 15 15 15 15 15 15 15 15 15 15 15 15 14 14 14 14 14 14 14 14 14 14 14 14 14 14 14 13 13 13 13 13 13 13 13 13
15 15 15 15 15 15 15 15 15 15 15 15 15 15 14 14 14 14 14 14 14 14 14 14 14 14 14 14 14 14 14 14 14 13 13 13 13 13 13 13 13 13 13
15 15 15 15 15 15 15 15 15 15 15 14 14 14 14 14 14 14 14 14 14 14 14 14 14 14 14 14 14 14 14 13 13 13 12 12 12 13 13 13 13 13 13
15 15 15 15 15 14 14 14 14 14 14 14 14 14 14 14 14 14 14 14 14 14 14 14 14 13 13 13 13 14 14 13 12 12 12 12 12 12 12 12 12 12 12
14 14 14 14 14 14 14 14 14 14 14 14 14 14 14 14 14 14 14 14 14 14 13 13 13 13 13 13 13 13 13 13 13 12 12 12 12 12 12 12 12 12 12
14 14 14 14 14 14 14 14 14 14 14 14 14 14 14 14 13 13 13 13 13 13 13 13 13 13 13 13 13 13 13 13 12 12 12 12 12 12 12 12 12 12 12
14 14 14 14 14 14 14 14 14 13 14 14 13 13 13 13 13 13 13 13 13 13 13 13 13 12 13 13 13 13 13 12 12 12 12 12 12 12 12 12 12 11 11
13 13 13 13 13 13 13 13 13 13 13 13 13 13 13 13 13 13 13 13 12 12 12 12 12 12 12 12 12 12 12 12 12 11 11 12 12 12 11 11 11 11 11
13 13 13 13 13 13 13 13 13 13 13 13 13 13 13 13 13 12 12 12 12 12 12 12 12 12 12 12 12 12 11 11 11 11 11 11 11 11 11 11 11 11 10
13 13 13 13 13 13 13 13 13 12 12 12 12 12 12 12 12 12 12 12 12 12 12 12 12 12 12 12 12 11 11 11 11 11 11 11 11 11 11 11 11 10 10
12 13 13 13 13 13 13 13 12 12 12 12 12 12 12 12 12 12 12 12 12 11 11 11 11 11 11 11 11 11 11 11 11 11 11 11 11 11 11 10 10 10 10
12 12 12 12 12 12 12 12 12 12 12 12 12 12 12 12 12 12 12 11 11 11 11 11 11 11 11 11 11 11 11 11 11 11 11 11 11 11 10 10 10 10 9
11 12 12 12 12 12 12 12 12 12 12 12 12 12 12 12 12 12 11 11 11 11 11 11 11 11 11 11 11 11 11 11 11 11 10 10 10 10 10 10 10 10 9
11 11 11 11 11 11 12 12 11 11 12 12 12 11 11 11 11 11 11 11 11 11 11 11 11 10 10 10 10 10 10 10 10 10 10 10 10 10 10 10 10 10 9
10 11 11 11 11 11 11 11 11 11 11 11 11 11 11 11 11 11 11 11 11 11 11 10 10 10 10 10 10 10 10 10 10 10 10 10 10 10 10 10 10 10 9
10 10 10 10 10 11 11 11 10 11 11 11 11 11 11 11 11 11 11 11 10 10 10 10 10 10 10 10 10 10 10 10 10 10 9 9 9 9 9 9 9 9 9
9 10 10 10 10 10 10 10 10 10 10 10 10 10 10 10 10 10 10 10 10 10 10 10 10 10 9 10 10 9 9 9 9 9 9 9 9 9 9 9 9 9 9
9 9 9 9 10 10 10 10 10 10 10 10 10 10 10 10 10 10 10 10 10 10 10 9 9 9 9 9 9 9 9 9 9 9 9 9 9 9 9 8 8 8 8
8 9 9 9 9 9 10 10 10 10 9 10 9 9 9 10 10 9 9 9 9 9 9 9 9 9 9 9 8 8 8 8 8 9 9 8 8 8 8 8 8 8 8
8 8 8 9 9 9 9 9 9 9 9 9 9 9 9 9 9 9 9 9 9 9 9 9 9 8 8 8 8 8 8 8 7 8 8 8 8 8 8 8 7 7 7
8 8 8 8 8 9 9 9 9 9 9 9 9 9 9 9 9 9 9 9 8 8 8 8 8 8 8 8 8 8 8 8 7 7 7 7 7 7 7 7 7 7 7
7 7 8 8 8 8 8 8 8 8 8 8 8 8 8 8 8 8 8 8 8 8 8 8 8 7 7 7 8 8 8 7 7 7 6 6 6 6 6 6 7 6 6
6 7 7 7 7 8 8 8 8 8 8 8 8 8 8 8 8 8 8 8 7 7 7 7 7 7 7 7 7 7 7 7 7 6 6 6 6 6 6 6 6 6 6
Wind_Speed
6 8 11 10 11 12 12 13 13 12 12 11 11 11 11 11 10 10 10 10 10 10 11 11 12 12 12 13 13 13 14 14 14 14 14 14 14 14 13 12 11 12 13
6 10 12 11 11 12 12 12 12 12 11 11 11 11 10 10 10 10 9 10 10 10 10 11 12 12 12 12 13 13 14 14 13 13 12 13 13 13 13 12 12 12 13
7 10 12 11 12 13 12 12 12 12 11 11 11 10 10 9 9 9 9 9 9 9 10 11 11 11 11 11 12 12 12 12 12 10 8 10 12 13 13 13 12 12 12
7 9 11 12 12 12 12 12 12 12 11 11 11 10 9 9 9 9 9 9 9 9 9 10 10 10 11 11 11 11 11 11 9 6 7 9 10 12 12 12 12 12 12
7 9 10 11 12 12 12 12 12 12 11 11 10 10 9 9 9 9 9 9 9 9 9 9 10 10 10 10 10 11 10 10 7 6 8 8 9 11 11 12 12 12 12
7 8 10 11 11 12 12 12 12 12 11 11 10 10 9 9 9 8 8 9 9 9 8 9 9 9 9 9 10 10 9 7 5 7 7 7 8 10 10 11 11 11 10
7 8 10 11 11 11 11 11 11 11 11 11 10 10 9 9 9 9 8 8 8 8 8 9 9 9 9 9 9 9 8 5 5 6 6 7 8 9 9 9 9 10 9
5 7 9 11 11 11 11 11 11 11 11 11 10 10 9 9 9 9 8 7 7 8 8 8 9 8 9 9 9 8 7 4 5 5 6 7 8 7 8 8 8 8 8
4 6 7 9 10 10 10 10 10 10 10 10 10 10 9 9 9 8 8 7 7 7 7 7 8 8 8 8 8 7 6 3 4 5 5 5 6 6 6 7 7 7 7
3 4 5 7 9 9 10 10 10 10 10 9 9 10 10 9 9 8 7 7 7 7 6 6 7 8 8 8 7 7 5 3 4 4 4 5 5 4 5 5 5 5 5
3 3 4 5 6 7 8 9 10 10 9 9 9 10 9 7 7 7 7 7 7 7 6 6 6 7 7 7 6 5 3 2 3 3 3 5 4 3 4 4 4 4 4
4 3 3 4 5 6 6 7 7 8 8 8 8 9 7 6 5 6 7 7 7 6 6 6 6 6 5 5 5 4 3 2 2 2 3 4 3 3 3 3 3 4 4
5 4 3 3 3 5 5 5 5 5 7 7 8 8 7 6 5 5 5 6 6 5 4 4 4 4 4 3 3 3 2 1 1 2 3 4 2 2 2 3 3 3 3
5 5 4 4 3 4 5 4 5 5 5 6 7 8 7 5 4 4 4 4 4 3 3 3 2 3 3 3 3 3 2 1 1 1 2 3 2 2 2 2 2 2 2
5 5 5 5 4 4 4 4 4 5 5 7 7 8 7 6 5 4 3 3 3 3 3 3 3 3 3 3 2 2 2 2 1 1 1 3 2 2 1 1 1 2 2
5 6 5 6 5 5 4 4 4 5 5 6 6 8 8 7 5 5 4 4 3 3 3 3 3 3 2 2 2 2 2 2 1 1 1 2 3 2 2 1 1 2 2
5 5 5 6 6 5 5 5 4 5 5 5 5 7 7 7 7 5 5 4 3 3 3 3 3 2 2 2 2 2 1 1 1 1 1 1 1 3 3 2 2 2 2
5 5 5 4 5 5 5 4 4 5 5 5 5 6 7 7 7 6 5 4 5 4 4 3 3 2 2 2 1 1 1 1 1 1 1 1 1 1 2 3 2 2 2
5 5 5 5 5 5 5 4 4 4 4 4 5 5 6 7 7 6 4 4 5 4 4 3 3 3 2 2 1 1 1 1 1 1 1 1 1 1 1 2 2 3 3
5 4 5 4 5 5 4 4 3 4 3 3 4 5 6 6 7 6 4 4 5 4 4 4 4 3 2 2 1 1 1 1 1 1 1 2 1 1 1 0 0 2 3
4 4 4 4 4 4 4 4 5 4 4 4 3 5 6 7 7 6 5 5 5 5 5 5 4 4 2 2 2 1 2 2 2 2 2 2 1 1 1 0 0 0 1
3 4 4 4 4 5 4 4 4 4 4 4 3 4 5 6 7 6 6 5 5 5 5 6 5 4 3 3 3 2 2 3 2 2 2 2 1 1 1 1 0 0 1
3 4 4 4 4 5 5 4 4 4 3 3 4 4 5 6 6 6 6 6 5 5 5 6 6 6 4 4 3 3 3 3 2 2 3 3 2 2 1 1 1 1 1
3 3 3 4 4 4 5 5 7 6 5 4 4 4 5 5 6 6 6 6 6 5 5 5 5 6 6 4 3 3 2 2 2 2 3 3 2 2 2 1 1 1 1
2 2 2 3 3 4 5 6 7 6 4 3 4 4 4 3 4 5 5 5 5 5 5 5 5 6 5 5 4 3 3 3 4 3 3 3 2 2 2 2 2 2 2
1 1 1 2 2 3 4 5 6 6 6 5 5 4 3 3 2 3 4 5 5 5 5 5 5 6 5 5 5 4 4 3 4 4 4 4 4 3 3 3 3 2 2
Wind_Direction
161 163 159 162 155 148 142 137 132 129 128 129 126 122 118 115 115 112 109 108 102 96 95 95 92 89 86 84 82 80 78 78 78 79 79 77 76 77 75 70 69 71 71
162 164 160 163 156 151 145 140 135 132 131 129 127 125 123 120 117 115 113 111 105 99 98 97 94 92 90 87 85 82 79 78 78 79 83 83 77 76 74 67 63 71 71
159 161 163 162 157 153 147 142 138 136 135 131 127 124 125 126 120 119 116 113 108 104 101 99 96 94 92 91 90 86 82 80 78 79 85 85 80 76 73 72 72 73 72
160 162 163 158 157 154 151 145 142 141 138 133 129 126 126 131 127 122 122 117 112 107 103 100 98 97 96 95 93 90 87 83 77 78 83 81 82 78 74 72 72 70 69
158 163 157 156 156 155 155 151 147 144 140 136 133 129 130 130 132 126 124 121 116 111 107 105 103 100 98 98 96 93 89 85 81 83 83 80 81 79 75 72 70 70 68
158 162 156 157 156 153 154 154 152 148 144 140 136 133 132 129 127 129 123 123 119 115 112 111 108 105 102 102 100 96 91 90 103 89 86 83 83 81 77 73 70 70 69
160 163 160 159 156 154 153 154 153 151 149 146 142 139 136 130 126 124 123 125 123 119 115 115 112 108 106 105 103 100 94 84 91 89 84 82 83 83 79 75 72 69 69
160 165 163 163 161 157 156 157 154 152 150 149 147 144 139 134 129 124 120 123 125 122 118 117 116 113 110 108 105 102 98 100 101 94 86 83 82 83 80 75 72 68 67
161 166 167 171 170 163 160 155 155 154 150 148 148 143 137 135 130 127 123 119 120 119 120 121 121 118 116 113 109 104 100 92 108 97 88 81 77 81 81 76 70 67 66
169 169 170 176 176 174 168 156 154 153 146 143 145 139 132 132 131 130 130 124 121 120 120 122 123 125 119 117 113 110 115 142 116 107 94 83 70 80 84 79 73 68 66
185 183 177 181 181 178 173 161 157 156 146 143 143 138 138 144 142 140 134 127 124 121 124 123 120 121 121 121 117 124 149 135 124 109 97 81 69 74 85 78 72 68 66
201 201 190 186 185 182 176 169 169 167 160 160 157 155 155 149 142 137 128 126 123 120 122 122 124 137 143 140 135 158 151 140 135 118 97 83 78 79 82 78 72 70 67
209 208 207 195 189 188 181 176 171 171 168 168 164 159 153 145 145 148 147 141 138 137 138 133 156 165 161 150 154 162 151 155 136 115 98 79 74 80 76 73 70 67 67
220 213 212 204 194 191 187 181 176 175 174 172 169 165 159 153 158 162 163 166 165 160 155 163 163 159 159 159 165 166 163 179 159 127 91 76 64 65 65 64 66 61 71
229 222 216 211 203 194 187 187 182 184 182 179 173 172 170 166 167 169 170 170 173 170 168 172 171 165 166 163 167 176 180 190 179 166 114 86 70 63 56 47 32 38 46
237 231 221 213 207 197 193 188 189 189 184 183 178 178 177 176 174 172 173 173 173 176 176 176 175 171 171 172 176 184 198 198 192 187 162 113 94 76 56 41 35 31 34
235 237 232 219 207 200 198 197 191 191 186 184 181 181 181 180 178 177 178 178 174 173 172 171 171 168 174 183 193 198 195 189 192 195 187 182 137 102 72 57 56 47 31
239 234 239 228 213 202 200 200 193 188 186 187 182 180 182 182 181 177 180 182 175 174 173 177 184 182 186 201 214 205 196 174 215 205 175 175 171 143 99 68 63 55 28
240 230 229 228 218 207 198 193 186 183 185 188 182 177 179 181 182 178 182 179 175 173 176 181 189 191 187 192 217 217 204 207 223 210 173 166 156 145 133 87 64 48 27
237 232 224 221 217 206 194 186 183 181 181 184 188 182 179 180 183 176 176 178 174 174 181 186 182 182 188 182 186 204 203 211 223 226 209 183 165 151 153 106 83 64 43
229 226 222 210 207 199 193 192 192 193 188 185 192 185 181 180 181 178 175 178 181 185 188 184 180 179 185 176 191 207 206 204 207 216 222 207 176 160 149 157 166 0 21
238 227 223 215 205 202 199 197 200 188 185 180 177 180 181 182 183 182 181 182 185 186 187 187 181 189 199 201 209 211 223 213 204 214 216 220 217 185 192 214 213 339 337
250 236 226 218 211 205 195 184 175 174 175 180 183 187 185 187 182 182 184 185 184 189 192 196 195 195 200 207 219 229 231 232 216 200 212 214 219 224 218 202 205 259 293
266 250 230 219 211 202 191 188 183 187 189 192 187 187 182 187 183 184 183 183 186 189 194 199 207 205 203 205 211 235 260 264 231 218 209 212 221 239 242 228 224 251 276
278 259 243 217 208 197 191 192 193 192 189 178 176 174 176 179 184 185 183 181 187 190 192 194 200 209 212 212 211 211 221 239 243 235 236 233 232 235 243 251 247 251 262
283 265 240 216 205 194 187 189 192 187 183 177 177 175 178 179 182 185 185 190 190 189 192 194 200 204 211 213 213 214 215 219 222 224 232 235 243 245 243 245 250 254 263
Height
1520 1521 1522 1524 1526 1527 1529 1530 1531 1531 1532 1533 1534 1534 1535 1535 1535 1536 1536 1536 1536 1536 1537 1537 1537 1536 1536 1536 1536 1536 1536 1536 1535 1535 1535 1535 1534 1534 1534 1534 1534 1533 1533
1519 1521 1522 1524 1526 1527 1529 1530 1531 1532 1533 1533 1534 1535 1535 1536 1536 1536 1537 1537 1537 1537 1538 1538 1537 1537 1537 1537 1537 1537 1537 1537 1536 1536 1536 1536 1536 1536 1535 1535 1535 1534 1534
1519 1520 1522 1524 1526 1527 1529 1530 1531 1532 1533 1534 1534 1535 1536 1536 1536 1537 1537 1537 1538 1538 1538 1538 1538 1538 1538 1538 1538 1538 1538 1538 1538 1538 1538 1538 1538 1537 1537 1536 1536 1535 1535
1519 1521 1522 1524 1526 1527 1529 1530 1531 1532 1533 1534 1535 1535 1536 1536 1537 1537 1537 1538 1538 1538 1538 1539 1539 1539 1538 1538 1538 1538 1538 1538 1539 1539 1540 1540 1539 1538 1538 1537 1537 1537 1536
1519 1521 1522 1524 1526 1527 1528 1530 1531 1532 1533 1534 1535 1535 1536 1536 1537 1538 1538 1538 1538 1539 1539 1539 1539 1539 1539 1539 1539 1539 1539 1539 1539 1540 1541 1541 1540 1540 1539 1538 1538 1537 1537
1519 1521 1522 1524 1525 1527 1528 1529 1531 1532 1533 1534 1535 1535 1536 1537 1537 1538 1538 1538 1539 1539 1539 1539 1539 1539 1540 1540 1540 1539 1540 1540 1541 1541 1541 1541 1541 1540 1540 1539 1539 1538 1538
1519 1521 1522 1524 1525 1527 1528 1529 1530 1531 1532 1533 1534 1535 1536 1536 1537 1538 1538 1539 1539 1539 1539 1539 1540 1540 1540 1540 1540 1540 1540 1541 1541 1542 1542 1542 1542 1541 1541 1540 1540 1539 1539
1519 1521 1522 1523 1525 1526 1527 1528 1529 1530 1531 1532 1534 1534 1535 1536 1537 1537 1538 1538 1539 1539 1539 1540 1540 1540 1540 1540 1540 1540 1541 1541 1542 1542 1542 1542 1542 1541 1541 1541 1540 1540 1539
1518 1520 1521 1522 1524 1525 1526 1527 1528 1530 1531 1532 1533 1534 1535 1536 1536 1537 1537 1538 1539 1539 1539 1540 1540 1540 1540 1540 1540 1541 1541 1541 1542 1542 1542 1542 1542 1542 1541 1541 1541 1540 1540
1518 1519 1520 1521 1522 1524 1525 1526 1527 1528 1530 1530 1531 1533 1534 1535 1536 1536 1537 1538 1538 1538 1539 1539 1540 1540 1540 1540 1540 1541 1541 1542 1542 1542 1542 1542 1542 1542 1541 1541 1541 1540 1540
1516 1517 1518 1519 1521 1522 1523 1525 1526 1527 1528 1529 1530 1531 1533 1534 1535 1535 1536 1537 1537 1538 1538 1539 1539 1539 1540 1540 1540 1540 1541 1542 1542 1542 1542 1541 1541 1542 1541 1541 1540 1540 1540
1514 1515 1516 1518 1519 1520 1522 1523 1524 1525 1527 1528 1529 1530 1531 1532 1533 1534 1535 1536 1536 1537 1537 1538 1538 1539 1539 1539 1540 1540 1541 1541 1542 1542 1541 1541 1541 1541 1541 1540 1540 1540 1539
1512 1513 1514 1515 1516 1518 1519 1520 1522 1523 1524 1526 1527 1528 1529 1530 1532 1533 1534 1534 1535 1536 1536 1536 1537 1538 1538 1539 1539 1539 1540 1540 1541 1541 1540 1540 1540 1540 1540 1540 1539 1539 1539
1510 1511 1512 1513 1514 1515 1516 1518 1519 1521 1522 1523 1525 1526 1527 1528 1530 1531 1532 1533 1534 1534 1535 1535 1535 1536 1537 1538 1538 1539 1539 1539 1539 1540 1539 1539 1539 1539 1539 1539 1539 1538 1538
1507 1508 1509 1510 1511 1512 1513 1515 1516 1518 1519 1521 1522 1524 1525 1526 1527 1529 1530 1531 1532 1533 1533 1534 1534 1535 1536 1536 1537 1537 1537 1538 1538 1538 1538 1538 1538 1538 1538 1538 1538 1537 1537
1504 1505 1506 1507 1508 1509 1510 1511 1513 1515 1516 1518 1519 1521 1522 1524 1525 1526 1528 1529 1530 1531 1532 1532 1533 1534 1534 1535 1535 1535 1536 1536 1536 1536 1536 1536 1536 1536 1536 1536 1536 1536 1536
1501 1502 1503 1503 1504 1506 1507 1508 1510 1511 1513 1515 1516 1518 1520 1521 1522 1524 1525 1526 1528 1529 1530 1530 1531 1532 1532 1533 1533 1534 1534 1534 1535 1535 1534 1534 1534 1534 1534 1534 1534 1534 1534
1497 1498 1499 1500 1501 1502 1503 1505 1507 1508 1510 1512 1513 1515 1517 1518 1520 1521 1522 1524 1525 1526 1527 1528 1529 1530 1530 1531 1531 1531 1532 1532 1533 1533 1533 1533 1532 1532 1532 1532 1532 1532 1532
1494 1494 1496 1496 1497 1498 1500 1502 1503 1505 1506 1508 1510 1512 1514 1515 1517 1518 1520 1521 1522 1524 1525 1526 1527 1528 1528 1529 1529 1529 1530 1530 1531 1531 1531 1530 1530 1530 1530 1530 1530 1529 1529
1490 1491 1492 1493 1494 1495 1497 1498 1500 1502 1503 1505 1506 1508 1510 1512 1514 1516 1517 1518 1520 1521 1522 1523 1524 1525 1526 1527 1527 1527 1527 1528 1528 1528 1528 1528 1528 1528 1528 1528 1527 1527 1527
1487 1487 1488 1489 1490 1492 1493 1494 1496 1498 1499 1501 1503 1505 1507 1509 1511 1512 1514 1515 1517 1518 1519 1520 1521 1522 1523 1524 1525 1525 1525 1525 1525 1526 1526 1526 1526 1526 1526 1525 1525 1525 1524
1483 1484 1485 1486 1487 1489 1490 1491 1493 1495 1496 1498 1500 1502 1504 1505 1507 1509 1510 1512 1513 1514 1516 1517 1518 1519 1520 1522 1523 1523 1524 1525 1522 1523 1523 1523 1523 1523 1523 1523 1523 1522 1522
1480 1481 1482 1483 1484 1486 1487 1488 1490 1492 1493 1495 1497 1498 1500 1502 1504 1505 1507 1508 1510 1511 1513 1514 1515 1516 1518 1519 1520 1521 1522 1521 1521 1520 1520 1521 1521 1521 1521 1520 1520 1520 1520
1477 1478 1479 1480 1481 1482 1483 1485 1486 1488 1489 1491 1493 1495 1497 1499 1501 1502 1504 1505 1507 1508 1509 1511 1512 1513 1515 1515 1516 1517 1519 1518 1519 1518 1518 1518 1517 1517 1518 1517 1517 1517 1517
1475 1475 1476 1477 1478 1479 1480 1481 1483 1485 1487 1489 1490 1492 1494 1496 1498 1499 1500 1501 1503 1505 1506 1507 1508 1510 1511 1512 1513 1514 1515 1515 1515 1516 1515 1515 1515 1514 1514 1514 1514 1514 1513
1472 1473 1473 1474 1475 1476 1477 1479 1480 1482 1484 1486 1487 1489 1490 1492 1494 1495 1496 1498 1500 1501 1502 1504 1505 1506 1508 1509 1510 1511 1511 1512 1512 1512 1512 1512 1512 1512 1511 1511 1511 1510 1510